Header for Extended Forecast Station List Page

Search by: ID | Name | Date | Parm | Value | Avg | % Avg
Sort by: ID | Name | Date | Parm | Value | Avg | % Avg

Enter search or view all records.

Click on id for station plot
#IDNameDateParmValueAvg% Avg
0LEOI1KOOTENAI-AT LEONIA07-27-2020DISCHARGE (KAF)23952191109
1FCFM8NF FLATHEAD-NEAR COLUMBIA FALLS07-27-2020DISCHARGE (KAF)26430188
2WGCM8MF FLATHEAD-NEAR WEST GLACIER07-27-2020DISCHARGE (KAF)274249110
3CFMM8FLATHEAD-AT COLUMBIA FALLS07-27-2020DISCHARGE (KAF)11961195100
4DLGM8CLARK FORK-AT DEER LODGE07-27-2020DISCHARGE (KAF)7247151
5DRMM8CLARK FORK-NR DRUMMOND07-27-2020DISCHARGE (KAF)176MM
6RCCM8ROCK CREEK-NEAR CLINTON07-27-2020DISCHARGE (KAF)8666130
7BONM8BLACKFOOT-NEAR BONNER07-27-2020DISCHARGE (KAF)16617495
8ABOM8CLARK FORK-ABOVE MISSOULA07-27-2020DISCHARGE (KAF)447386116
9BITM8BITTERROOT-NEAR MISSOULA07-27-2020DISCHARGE (KAF)22122997
10BELM8CLARK FORK-BELOW MISSOULA07-27-2020DISCHARGE (KAF)666620107
11STRM8ST. REGIS-NEAR ST. REGIS07-27-2020DISCHARGE (KAF)3431112
12SRGM8CLARK FORK-AT ST REGIS07-27-2020DISCHARGE (KAF)820812101
13PRTI1PRIEST-NEAR PRIEST RIVER07-27-2020DISCHARGE (KAF)9017053
14SPOW1SPOKANE-AT SPOKANE07-27-2020DISCHARGE (KAF)398MM
15SATI1ST MARIES-NEAR SANTA07-27-2020DISCHARGE (KAF)151884
16CIBW1COLUMBIA-AT INTL BOUNDARY07-27-2020DISCHARGE (KAF)21682MM
17LAUW1KETTLE-AT LAURIER07-27-2020DISCHARGE (KAF)13014987
18TONW1OKANOGAN-NEAR TONASKET07-27-2020DISCHARGE (KAF)370305121
19PATW1METHOW-NEAR PATEROS07-27-2020DISCHARGE (KAF)11112688
20ARDW1ENTIAT-NEAR ARDENVOIR07-27-2020DISCHARGE (KAF)253279
21PESW1WENATCHEE-AT PESHASTIN07-27-2020DISCHARGE (KAF)26827897
22EASW1YAKIMA-AT EASTON07-27-2020DISCHARGE (KAF)517073
23TNAW1TEANAWAY-BELOW FORKS07-27-2020DISCHARGE (KAF)81078
24UMTW1YAKIMA-AT UMTANUM07-27-2020DISCHARGE (KAF)48550396
25CLFW1NACHES-NEAR CLIFFDEL07-27-2020DISCHARGE (KAF)758391
26NACW1NACHES-NEAR NACHES07-27-2020DISCHARGE (KAF)10011388
27PARW1YAKIMA-NEAR PARKER07-27-2020DISCHARGE (KAF)14917784
28KIOW1YAKIMA-AT KIONA07-27-2020DISCHARGE (KAF)43547791
29CHEI1FALL RIVER-NEAR CHESTER07-27-2020DISCHARGE (KAF)8782106
30ANTI1HENRYS FORK-AT ST. ANTHONY07-27-2020DISCHARGE (KAF)344322107
31TEAI1TETON-NEAR ST. ANTHONY07-27-2020DISCHARGE (KAF)15416096
32REXI1HENRYS FORK-AT REXBURG07-27-2020DISCHARGE (KAF)420383110
33JKSW4SNAKE-NEAR JACKSON07-27-2020DISCHARGE (KAF)791736107
34ALPW4SNAKE-NEAR ALPINE07-27-2020DISCHARGE (KAF)86288098
35HEII1SNAKE-NEAR HEISE07-27-2020DISCHARGE (KAF)1418150394
36SIFI1SNAKE-AB EAGLE ROCK NR IDAHO FALLS07-27-2020DISCHARGE (KAF)11391140100
37SHYI1SNAKE-NEAR SHELLEY07-27-2020DISCHARGE (KAF)1067915117
38SNAI1SNAKE-AT BLACKFOOT07-27-2020DISCHARGE (KAF)726585124
39BFTI1SNAKE-NEAR BLACKFOOT07-27-2020DISCHARGE (KAF)727589123
40PIHI1PORTNEUF-AT POCATELLO07-27-2020DISCHARGE (KAF)303391
41MILI1SNAKE-AT MILNER07-27-2020DISCHARGE (KAF)353167211
42HOTI1BRUNEAU-NEAR HOT SPRINGS07-27-2020DISCHARGE (KAF)102246
43SWAI1SNAKE-BELOW SWAN FALLS07-27-2020DISCHARGE (KAF)2116213799
44HWRI1BIG LOST-AT HOWELL RANCH NEAR CHILLY07-27-2020DISCHARGE (KAF)203755
45HALI1BIG WOOD-AT HAILEY07-27-2020DISCHARGE (KAF)375567
46BIGI1BOISE-AT GLENWOOD BRIDGE07-27-2020DISCHARGE (KAF)13113597
47PARI1BOISE-NEAR PARMA07-27-2020DISCHARGE (KAF)20822294
48EMMI1PAYETTE-NEAR EMMETT07-27-2020DISCHARGE (KAF)418401104
49WSRI1WEISER-NEAR WEISER07-27-2020DISCHARGE (KAF)505198
50WEII1SNAKE-AT WEISER07-27-2020DISCHARGE (KAF)32083120103
51WHBI1SALMON-AT WHITEBIRD07-27-2020DISCHARGE (KAF)1146122494
52TRYO3GRANDE RONDE-TROY07-27-2020DISCHARGE (KAF)221203109
53ANAW1SNAKE-NEAR ANATONE07-27-2020DISCHARGE (KAF)4649473798
54ORFI1CLEARWATER-AT OROFINO07-27-2020DISCHARGE (KAF)47750994
55SPDI1CLEARWATER-AT SPALDING07-27-2020DISCHARGE (KAF)17751050169
56TCHW1WALLA WALLA-NEAR TOUCHET07-27-2020DISCHARGE (KAF)1813131
57GIBO3UMATILLA-NEAR GIBBON07-27-2020DISCHARGE (KAF)131397
58PDTO3UMATILLA-AT PENDLETON07-27-2020DISCHARGE (KAF)1515102
59MYKO3MCKAY CREEK-NEAR PILOT ROCK07-27-2020DISCHARGE (KAF)11116
60UMAO3UMATILLA-NEAR UMATILLA07-27-2020DISCHARGE (KAF)6614470
61MONO3NF JOHN DAY-AT MONUMENT07-27-2020DISCHARGE (KAF)353695
62SERO3JOHN DAY-AT SERVICE CK07-27-2020DISCHARGE (KAF)546484
63MODO3DESCHUTES-AT MOODY NR BIGGS07-27-2020DISCHARGE (KAF)1050111994
64PITW1KLICKITAT-NEAR PITT07-27-2020DISCHARGE (KAF)16519286
65HODO3HOOD-NEAR TUCKER BRIDGE07-27-2020DISCHARGE (KAF)9910397
66UNDW1WHITE SALMON-NEAR UNDERWOOD07-27-2020DISCHARGE (KAF)14515991
67LYDM8KOOTENAI-LIBBY DAM07-27-2020INFLOW (KAF)1566166694
68HHWM8SF FLATHEAD-HUNGRY HORSE DAM07-27-2020INFLOW (KAF)23024992
69KERM8FLATHEAD-KERR DAM07-27-2020INFLOW (KAF)1343142494
70NOXM8CLARK FORK-NOXON RAPIDS DAM07-27-2020INFLOW (KAF)30202953102
71CABI1CLARK FORK-CABINET GORGE DAM07-27-2020INFLOW (KAF)33103126106
72ALFW1PEND OREILLE-ALBENI FALLS DAM07-27-2020INFLOW (KAF)3344342798
73COEI1COEUR D ALENE-COEUR D ALENE LAKE07-27-2020INFLOW (KAF)243242100
74LLKW1SPOKANE-AT LONGLAKE07-27-2020INFLOW (KAF)57062392
75GCDW1COLUMBIA-GRAND COULEE DAM07-27-2020INFLOW (KAF)2244420595109
76CHJW1COLUMBIA-CHIEF JOSEPH DAM07-27-2020INFLOW (KAF)2182220298108
77WELW1COLUMBIA-WELLS DAM07-27-2020INFLOW (KAF)2233420557109
78CHDW1CHELAN-LAKE CHELAN DAM07-27-2020INFLOW (KAF)15623167
79RRHW1COLUMBIA-ROCKY REACH DAM07-27-2020INFLOW (KAF)2265921063108
80WANW1COLUMBIA-WANAPUM DAM07-27-2020INFLOW (KAF)2301820957110
81PRWW1COLUMBIA-PRIEST RAPIDS DAM07-27-2020INFLOW (KAF)2300421392108
82KEDW1YAKIMA-KEECHELUS LAKE07-27-2020INFLOW (KAF)4229146
83KADW1KACHESS-KACHESS DAM07-27-2020INFLOW (KAF)2719142
84CLUW1CLE ELUM-CLE ELUM LAKE07-27-2020INFLOW (KAF)767699
85BUDW1BUMPING-BUMPING LAKE DAM07-27-2020INFLOW (KAF)2422107
86RILW1TIETON-RIMROCK LAKE NEAR RIMROCK07-27-2020INFLOW (KAF)6865105
87IPDI1HENRYS FORK-ISLAND PARK DAM07-27-2020INFLOW (KAF)13214392
88JLKW4SNAKE-JACKSON LAKE AT DAM07-27-2020INFLOW (KAF)13615389
89PLDI1SF SNAKE-PALISADES DAM07-27-2020INFLOW (KAF)1203122398
90RIDI1WILLOW CREEK-RIRIE DAM07-27-2020INFLOW (KAF)4674
91AFRI1SNAKE-AMERICAN FALLS RESERVOIR07-27-2020INFLOW (KAF)13451254107
92MACI1BIG LOST-MACKAY RESERVOIR NEAR MACKAY07-27-2020INFLOW (KAF)3025119
93MAGI1BIG WOOD-MAGIC DAM07-27-2020INFLOW (KAF)162858
94LWRI1LITTLE WOOD-LITTLE WOOD DAM07-27-2020INFLOW (KAF)81551
95OWYO3OWYHEE-OWYHEE DAM07-27-2020INFLOW (KAF)5752109
96ARAI1SF BOISE-ANDERSON RANCH DAM07-27-2020INFLOW (KAF)677193
97LUCI1BOISE-LUCKY PEAK DAM07-27-2020INFLOW (KAF)374MM
98WRMO3MALHEUR-WARM SPRINGS DAM07-27-2020INFLOW (KAF)75139
99BERO3MALHEUR-AGENCY VALLEY DAM07-27-2020INFLOW (KAF)98112
100BULO3BULLY CREEK-BULLY CREEK DAM07-27-2020INFLOW (KAF)M0M
101CSDI1NF PAYETTE-CASCADE DAM07-27-2020INFLOW (KAF)7769112
102DEDI1DEADWOOD-NEAR LOWMAN07-27-2020INFLOW (KAF)142074
103BRNI1SNAKE-BROWNLEE DAM07-27-2020INFLOW (KAF)33413176105
104DWRI1NF CLEARWATER-DWORSHAK DAM07-27-2020INFLOW (KAF)31137383
105LGDW1SNAKE-LOWER GRANITE DAM07-27-2020INFLOW (KAF)64245867110
106LGSW1SNAKE-LITTLE GOOSE DAM07-27-2020INFLOW (KAF)64135900109
107LMNW1SNAKE-LOWER MONUMENTAL DAM07-27-2020INFLOW (KAF)64185908109
108IHDW1SNAKE-ICE HARBOR DAM07-27-2020INFLOW (KAF)64045813110
109MCDW1COLUMBIA-MCNARY DAM07-27-2020INFLOW (KAF)2992828139106
110JDAO3COLUMBIA-JOHN DAY DAM07-27-2020INFLOW (KAF)3036428603106
111TDAO3COLUMBIA-THE DALLES DAM07-27-2020INFLOW (KAF)3092429293106
112BONO3COLUMBIA-BONNEVILLE DAM07-27-2020INFLOW (KAF)3134030393103
113HOPI1PEND OREILLE-PEND OREILLE LAKE NR HOPE07-27-2020LAKE ELEVATION (FT)MMM
114BFEI1KOOTENAI-AT BONNERS FERRY07-27-2020STAGE (FT)MMM
115SJMI1ST JOE-AT ST MARIES07-27-2020STAGE (FT)MMM